Location: Newark
(1.4667°N, 173.0333°E)
Time: 05:39:39
(UTC+00:00)

Hubble Space Telescope - Pass Details

Date: 22 March 2019
Orbit: 536 x 540 km, 28.5° (Epoch: 20 October)

Event Time Altitude Azimuth Distance (km) Brightness Sun altitude
Rises 07:44:25 0° 281° (W) 2,672 6.0 -17.4°
Reaches altitude 10° 07:48:24 10° 319° (NW) 1,781 4.0 -18.4°
Maximum altitude 07:49:29 11° 334° (NNW) 1,725 3.7 -18.6°
Drops below altitude 10° 07:50:34 10° 350° (N) 1,780 3.5 -18.9°
Enters shadow 07:52:48 - 15° (NNE) 2,181 3.7 -19.5°
